CO-66
1 32791U 08021J 11258.68913973 .00001606 00000-0 20740-3 0 851
2 32791 097.8393 320.6956 0014949 238.8934 121.0779 14.82266821182916
RS-30
1 32953U 08025A 11258.61692914 .00000010 00000-0 00000 0 0 870
2 32953 082.4989 106.5105 0018191 187.3980 172.6838 12.43014767150329
TACSAT-3
1 35001U 09028A 11257.72495298 .00033011 00000-0 53349-3 0 6958
2 35001 040.4537 347.9378 0018406 159.7425 200.4126 15.51934285130986
PHARMSAT
1 35002U 09028B 11257.66516252 .00026872 00000-0 45038-3 0 6487
2 35002 040.4677 346.7156 0020177 168.2792 191.8498 15.50954341130993
HAWKSAT1
1 35003U 09028C 11258.51050501 .00315989 00000-0 12503-2 0 7653
2 35003 040.4491 293.2430 0011782 170.5774 189.5281 15.84976376131654
CP6
1 35004U 09028D 11247.64656856 .16152067 73217-5 10011-2 0 7842
2 35004 040.4403 342.9642 0002956 038.0069 322.2231 16.41039951130139
METEOR-M
1 35865U 09049A 11258.78945621 .00000177 00000-0 10000-3 0 7276
2 35865 098.6977 312.7019 0002892 114.0340 246.1084 14.21841808103468
RS-38
1 35869U 09049E 11258.21535773 .00000177 00000-0 10000-3 0 7035
2 35869 098.6938 312.1646 0005120 123.8176 236.3469 14.22021278103393
ARISSAT1
1 37772U 98067CK 11258.88591337 .00054723 00000-0 58512-3 0 1310
2 37772 051.6381 063.8610 0011345 207.8100 308.1738 15.63264202 6656
